カタログに戻る

THORAD AGENA D DEB

運用中SSO
NORAD 4982·DEBRIS·🇺🇸 United States

打ち上げ Apr 8, 1970 から Vandenberg Space Force Base

Loading…

次のパス (今後24時間)

TLE

最新Source: Space-Track

元期: Sep 14, 2026, 10:04 UTC

1 04982U 70025HC  26257.42000878  .00000080  00000-0  21524-3 0  9993
2 04982  99.6079 235.1139 0080788  62.8279  88.9891 13.40962290755459

AllMySatでTHORAD AGENA D DEBをリアルタイム追跡

Download on the App Store